Regional Weather Roundup
Issued by NWS Newport/Morehead, NC

Home | Current Version | Previous Version | Text Only | Print | Product List | Glossary On
Versions: 1 2 3 4 5 6 7 8 9 10 11 12 13 14 15 16 17 18 19 20 21 22 23 24 25 26 27 28 29 30 31 32 33 34 35 36 37 38 39 40 41 42 43 44 45 46 47 48 49 50
000
ASUS42 KMHX 272224
RWRMHX
WEATHER ROUNDUP FOR EASTERN NORTH CAROLINA
NATIONAL WEATHER SERVICE NEWPORT/MOREHEAD CITY NC
600 PM EDT FRI MAR 27 2015

NOTE: "FAIR" INDICATES FEW OR NO CLOUDS BELOW 12,000 FEET
WITH NO SIGNIFICANT WEATHER AND/OR OBSTRUCTIONS TO VISIBILITY

NCZ015>017-031-032-045>047-102-103-272300-
NORTH COAST

CITY           SKY/WX    TMP DP  RH WIND       PRES   REMARKS
EDENTON        CLOUDY    42  40  93 N10G16    29.75F
ELIZABETH CITY LGT RAIN  43  39  87 N16       29.75R
KITTY HAWK     RAIN      40  40  97 N9G17     29.74R
MANTEO         LGT RAIN  40  39  95 NE15G26   29.74R

$$

NCZ045>047-081-094-103-104-272300-
CENTRAL COAST

CITY           SKY/WX    TMP DP  RH WIND       PRES   REMARKS
FRISCO         CLOUDY    44  40  85 NE18G36   29.68F
SWANQUARTER      N/A     45 N/A N/A N14G20    29.68S

$$

NCZ095-097-098-100-101-272300-
SOUTHERN COAST

CITY           SKY/WX    TMP DP  RH WIND       PRES   REMARKS
BEAUFORT       RAIN      47  46  97 NE8G18    29.71F FOG
CEDAR ISLAND     N/A     46 N/A N/A N16G26    29.74F
JACKSONVILLE   LGT RAIN  46  43  89 NE16      29.72R
PINEY ISLAND   LGT RAIN N/A N/A N/A N16       29.70F
WILMINGTON     CLOUDY    48  46  93 N12       29.70R


$$

NCZ011>013-027>030-043-044-078>080-089-090>093-098-272300-
COASTAL PLAIN

CITY           SKY/WX    TMP DP  RH WIND       PRES   REMARKS
AHOSKIE        HVY RAIN  41  39  93 N5        29.77F
CLINTON        CLOUDY    46  45  96 N9G16     29.76R
ELIZABETHTOWN  CLOUDY    46  45  97 N5        29.74R
GOLDSBORO      CLOUDY    45  45 100 N10       29.75R
GREENVILLE     DRIZZLE   43  41  93 N17       29.78S
HAVELOCK       LGT RAIN  46  43  89 N16G25    29.73S FOG
KENANSVILLE    CLOUDY    45  44  95 N9        29.76R
KINSTON        NOT AVBL
NEW BERN       RAIN      45  42  89 NE15      29.73S
RICHLANDS      CLOUDY    45  41  87 N8        29.74R
ROCKY MOUNT    CLOUDY    44  40  85 N10       29.78R
WASHINGTON     DRIZZLE   43  40  90 NE9G17    29.75R
WHITEVILLE     CLOUDY    48  46  91 N3        29.71S

$$

AMZ130-135-150-152-154-156-158-170-250-252-270-ANZ085-086-088-633-658-670-272300-
MARINE OBSERVATIONS

STATION/POSITION TIME  TEMP    WIND        PRES    WAVE   SWELL
                       AIR SEA DIR/SP/G            HT/PER HT/PER
                 (UTC) (F)     (DEG/KT/KT) (MB)    (FT/S) (FT/S)
CHESAPEAKE LIGHT 2200   40      10/ 12/ 14 1007.9
64 E VA BEACH    2150   45 52   10/ 19/ 23 1004.8    9/ 8   3/10
DUCK             2200   41 42  360/ 15/ 19 1006.4
2 E DUCK         2111      42                N/A     6/ 7   2/11
10 NE DUCK       NOT AVBL
OREGON INLET     2200   41 55  350/ 14/ 19 1006.8
HATTERAS CG      2106   46 58   10/ 26/ 30 1005.5
CAPE LOOKOUT     2200   46      20/ 21/ 25 1005.1
BEAUFORT LAB     2200   47 58   20/ 11/ 15 1004.8
27 SE WRIGHTSVLE 2200   49 65   60/ 23/ 27 1005.1
5 SE WRIGHTSVLE  2200   51 57   30/ 17/ 23 1004.7
225 S CAPE HAT   2150   71 69  230/ 14/ 19 1006.4   10/ 8  10/ 8
41 SE CHARLESTON 2150   69 69  240/ 17/ 23 1002.8    7/ 7   2/15

$$


USA.gov is the U.S. government's official web portal to all federal, state and local government web resources and services.